EHI
24 24 24 20 15 12 10 10 12 13 14 11 7 6 7 8 9 9 8 7 6 6 6 6 6 6 6 6 5 4 5 7 7 6 4 5 6 4 1 1 1 1 0
22 22 21 18 15 12 10 10 11 12 12 10 7 6 7 7 8 8 8 7 7 6 6 5 5 5 5 6 6 5 4 5 5 4 3 4 5 4 1 0 0 0 0
19 20 20 19 16 12 10 10 10 10 10 9 7 6 6 6 7 7 8 8 7 5 4 3 2 2 3 5 5 4 3 3 2 2 2 3 3 3 2 1 0 0 0
17 17 18 18 16 12 10 10 8 8 9 9 7 6 6 6 6 6 7 8 7 4 2 1 0 1 1 2 2 2 1 1 1 1 1 1 2 2 2 1 1 1 1
13 13 14 14 13 10 8 7 7 7 8 8 7 6 6 6 5 5 5 6 6 4 2 0 0 0 0 0 0 0 0 0 0 0 0 0 1 1 1 1 1 1 2
11 11 11 11 9 7 5 4 5 6 7 8 7 6 5 4 3 3 4 4 4 3 1 0 0 0 0 0 0 0 0 0 0 0 0 0 0 0 0 0 0 1 1
10 10 10 10 8 5 4 3 4 5 7 7 6 4 4 3 1 1 2 3 3 2 1 0 0 0 0 0 0 0 0 0 0 0 0 0 0 0 0 0 0 0 0
9 9 9 8 6 4 3 3 3 4 5 5 4 3 3 2 1 0 1 2 2 1 0 0 0 0 0 0 0 0 0 0 0 0 0 0 0 0 0 0 0 0 0
9 8 7 5 4 3 3 3 3 3 3 3 3 3 3 2 1 0 1 1 1 0 0 0 0 0 0 0 0 0 0 0 0 0 0 0 0 0 0 0 0 0 0
7 6 5 4 3 3 2 2 2 2 2 3 3 3 3 2 1 0 0 0 0 0 0 0 0 0 0 0 0 0 0 0 0 0 0 0 0 0 0 0 0 0 0
5 5 4 4 3 2 1 1 1 1 1 2 2 2 2 1 0 0 0 0 0 0 0 0 0 0 0 0 0 0 0 0 0 0 0 0 0 0 0 0 0 0 0
4 4 3 3 2 1 1 1 1 0 0 1 1 1 1 0 0 0 0 0 0 0 0 0 0 0 0 0 0 0 0 0 0 0 0 0 0 0 0 0 0 0 0
5 4 4 4 2 2 3 2 1 1 0 0 0 0 0 0 0 0 0 0 0 0 0 0 0 0 0 0 0 0 0 0 0 0 0 0 0 0 0 0 0 0 0
6 6 6 6 5 4 4 2 1 1 0 0 0 0 0 0 0 0 0 0 0 0 0 0 0 0 0 0 0 0 0 0 0 0 0 0 0 0 0 0 0 0 0
9 8 6 6 6 4 3 2 1 1 0 0 0 0 0 0 0 0 0 0 0 0 0 0 0 0 0 0 0 0 0 0 0 0 0 0 0 0 0 0 0 0 0
8 7 6 6 5 3 2 1 1 0 0 0 0 0 0 0 0 0 0 0 0 0 0 0 0 0 0 0 0 0 0 0 0 0 0 0 0 0 0 0 0 0 0
5 4 4 4 3 2 2 1 0 0 0 0 0 0 0 0 0 0 0 0 0 0 0 0 0 0 0 0 0 0 0 0 0 0 0 0 0 0 0 0 0 0 0
1 1 1 2 2 3 2 1 0 0 0 0 0 0 0 0 0 0 0 0 0 0 0 0 0 0 0 0 0 0 0 0 0 0 0 0 0 0 0 0 0 0 0
1 0 0 1 1 2 2 1 0 0 0 0 1 0 0 0 0 0 0 0 0 0 0 0 0 0 0 0 0 0 0 0 0 0 0 0 0 0 0 0 0 0 0
2 1 0 0 0 1 1 0 0 0 0 0 0 0 0 0 0 0 0 0 0 0 0 0 0 0 0 0 0 0 0 0 0 0 0 0 0 0 0 0 0 0 0
2 1 0 0 0 0 0 0 0 0 0 0 0 0 0 0 0 0 0 0 0 1 1 1 0 0 0 0 0 0 0 0 0 0 0 0 0 0 0 0 0 0 0
1 0 0 0 0 0 0 0 0 0 0 0 0 0 0 0 0 0 0 0 0 1 1 1 0 0 0 0 0 0 0 0 0 0 0 0 0 0 0 0 0 0 0
1 1 0 0 0 0 0 0 0 0 0 0 0 0 0 0 0 0 1 1 0 0 0 0 0 0 0 0 0 0 0 0 0 0 0 0 0 0 0 0 0 0 0
2 2 1 0 0 0 0 1 1 1 1 1 1 1 0 0 0 0 1 1 0 0 0 0 0 0 0 0 0 0 0 0 0 0 0 0 0 0 0 0 0 0 0
3 2 1 1 1 1 1 2 2 2 2 2 2 1 0 0 0 0 1 1 0 0 0 0 0 0 0 0 0 0 0 0 0 0 0 0 0 0 0 0 0 0 0
2 2 2 2 2 2 2 3 3 3 3 3 2 1 0 0 0 0 0 0 0 0 0 0 0 0 0 0 0 0 0 0 0 0 0 0 0 0 0 0 0 0 0
Wind_Speed
5 5 4 5 5 5 5 5 4 4 4 4 4 5 5 5 5 5 6 5 6 6 6 6 7 6 5 5 5 6 6 6 7 6 4 3 4 6 4 5 6 6 6
5 5 5 4 5 5 5 4 4 4 4 5 5 5 6 5 5 6 7 6 7 7 7 7 7 6 7 6 5 6 6 6 7 7 5 5 5 5 5 6 6 5 5
4 5 5 5 5 5 4 4 5 5 5 5 5 6 6 6 6 6 7 7 7 7 7 7 7 7 7 5 6 6 5 6 6 6 6 4 4 4 5 6 7 5 6
4 4 4 4 4 4 4 4 5 5 5 5 5 5 6 6 7 7 7 7 7 7 7 6 7 6 6 6 6 6 6 6 6 6 6 5 5 4 5 5 5 5 5
4 4 4 4 4 4 4 4 4 4 5 5 5 5 6 5 5 6 6 7 7 7 7 7 7 5 5 5 5 5 5 5 5 5 6 5 5 4 5 5 5 5 5
4 4 4 4 4 4 4 4 4 4 5 5 5 5 5 4 2 3 6 7 7 8 7 7 6 6 6 7 6 6 6 6 6 6 6 5 5 5 4 5 5 5 5
4 4 4 4 4 4 4 4 4 4 4 4 5 5 5 4 3 4 6 7 7 6 6 5 6 4 6 6 7 9 9 9 8 8 8 7 6 5 6 7 6 7 7
4 3 3 3 3 3 3 4 4 3 4 4 4 5 5 4 4 4 5 8 6 6 6 7 6 5 5 5 6 7 7 8 8 9 8 8 7 6 6 7 7 7 8
3 3 3 3 3 3 4 4 4 4 4 5 4 5 5 4 4 5 5 6 5 6 6 6 6 6 3 4 6 7 7 7 8 9 8 8 7 7 6 6 6 7 7
3 3 3 3 3 3 3 4 4 4 5 5 4 4 5 4 4 5 6 6 5 5 5 5 5 5 3 5 7 7 8 8 7 7 8 9 10 9 10 9 8 7 6
2 2 2 3 3 4 3 3 4 4 4 4 4 4 5 4 5 6 6 6 5 5 4 4 3 6 5 6 7 8 8 8 8 8 8 8 7 7 8 8 8 7 7
1 2 2 2 3 2 3 3 3 3 4 4 3 4 4 4 4 5 7 8 7 6 5 4 2 5 6 7 7 7 7 7 7 7 7 7 6 6 6 6 7 8 8
1 2 2 2 2 2 2 2 2 2 3 3 3 3 3 2 3 6 8 9 8 6 4 3 2 4 6 7 9 8 8 7 7 7 8 7 6 6 6 6 7 8 9
1 2 2 2 2 1 2 2 2 2 2 3 3 3 3 2 2 2 3 4 6 6 5 4 5 7 8 7 6 7 7 6 7 7 7 7 6 6 6 6 6 6 6
1 2 2 2 1 2 2 2 3 2 2 3 3 4 4 3 2 2 2 3 3 3 4 5 5 5 6 6 6 6 6 6 7 7 7 6 6 6 6 5 5 6 7
1 2 2 2 1 2 2 1 1 2 2 3 4 5 3 2 2 2 3 3 4 4 5 6 6 6 6 6 6 6 6 6 6 6 6 6 6 6 6 6 6 6 7
2 2 2 2 2 2 2 3 3 3 5 5 6 5 5 4 4 4 4 4 5 5 6 6 6 6 6 6 6 6 6 5 5 5 6 6 6 6 6 6 6 6 6
2 2 3 2 3 3 3 3 4 4 3 3 5 7 7 7 6 6 5 4 4 6 6 6 6 6 6 6 6 6 6 5 5 5 6 6 6 6 6 6 6 7 6
2 1 2 2 3 3 3 3 4 4 4 4 3 3 6 6 7 7 6 5 5 5 5 6 6 6 5 5 5 5 5 5 5 5 6 6 6 6 6 7 6 6 7
2 1 3 3 3 3 3 3 3 3 3 3 4 4 2 3 4 3 4 5 5 5 5 6 5 5 5 5 5 5 5 5 6 6 6 6 6 6 7 7 6 6 6
2 1 3 3 3 3 3 3 3 4 4 4 3 2 3 5 5 5 4 4 4 5 5 5 5 5 5 5 5 5 6 5 5 6 6 6 6 6 6 6 6 6 6
3 3 2 3 3 3 4 4 4 4 4 4 4 2 3 4 4 5 4 4 4 4 5 5 5 5 4 4 5 5 6 6 6 6 6 6 6 6 6 6 6 5 5
3 3 3 3 3 3 4 4 4 4 4 4 4 4 3 4 4 4 4 4 4 4 4 4 5 4 4 4 4 5 6 6 5 6 6 5 5 5 5 6 6 6 6
3 4 4 3 3 4 4 4 4 4 4 4 4 4 4 4 4 4 5 4 4 4 4 4 4 5 6 5 4 5 5 5 6 6 7 6 6 6 5 5 6 7 6
3 4 4 4 4 4 4 4 4 4 4 4 4 4 4 4 4 4 4 4 5 4 4 4 4 4 6 6 6 5 3 3 4 5 6 6 7 6 6 6 6 7 7
4 5 4 4 4 4 4 4 4 4 4 4 4 4 4 4 4 4 4 4 5 4 4 4 4 5 5 5 5 4 1 2 2 4 6 6 6 6 6 5 8 7 7
Wind_Direction
188 184 188 195 197 201 205 206 205 208 207 209 213 214 216 213 215 221 234 227 229 235 237 234 238 246 243 240 240 243 243 245 254 259 251 249 236 250 239 241 240 233 213
182 183 191 195 196 200 202 203 202 207 213 215 219 220 223 220 219 223 232 233 235 239 238 237 239 236 237 246 244 243 245 243 248 256 255 251 243 241 244 247 247 238 240
182 184 189 196 199 206 208 204 209 214 219 221 224 226 229 229 226 229 233 239 242 244 242 241 244 244 242 242 244 247 248 244 244 251 250 253 252 246 245 242 244 245 245
182 185 190 200 207 211 216 212 215 220 225 227 227 233 236 237 238 237 237 240 244 245 246 245 244 244 248 249 243 244 248 249 243 249 250 246 244 240 244 246 246 237 244
189 190 193 199 204 210 222 221 224 230 234 234 233 240 244 242 245 249 248 244 243 243 241 240 236 239 254 259 262 251 246 247 246 246 250 251 249 247 250 255 257 256 246
199 193 188 194 200 208 222 228 230 233 239 238 237 242 247 250 248 255 258 255 248 244 245 244 237 223 225 226 240 249 255 251 253 255 254 252 256 256 259 259 260 258 256
199 199 195 199 204 216 225 227 232 236 239 242 240 242 246 249 222 231 244 253 248 244 243 246 254 243 231 235 221 220 227 236 245 258 262 263 261 260 263 259 258 265 270
197 200 201 208 222 229 236 239 238 238 242 243 244 244 245 237 205 226 246 244 245 243 242 243 248 249 244 247 243 239 238 232 231 238 253 259 260 261 254 256 260 257 256
205 213 216 222 233 237 238 242 241 240 243 245 239 244 246 232 198 213 238 242 240 244 245 242 242 240 224 232 248 251 251 248 230 227 240 252 262 260 257 256 250 252 256
215 217 220 230 237 240 243 242 239 243 246 252 246 245 246 242 198 205 228 248 247 247 239 230 219 230 209 207 243 251 254 257 260 240 231 233 237 233 223 235 251 253 260
227 227 234 241 246 243 241 240 244 248 254 259 259 254 245 237 203 203 221 251 258 256 254 246 217 174 200 219 240 249 254 263 262 257 249 242 236 231 226 225 235 250 257
231 239 256 266 273 254 248 248 251 259 252 248 247 253 246 226 220 209 213 233 263 263 262 264 232 167 206 227 238 249 250 252 254 254 253 251 247 241 237 236 236 242 249
244 264 275 277 274 270 266 267 258 251 267 274 267 267 267 259 207 199 209 219 231 247 266 289 268 215 229 234 234 236 237 241 245 248 250 250 249 247 246 238 235 236 242
258 268 263 253 257 261 268 268 275 278 280 282 283 286 290 284 278 246 226 218 213 229 250 238 214 223 238 250 239 227 235 244 250 252 254 254 252 247 243 241 244 240 244
267 265 262 251 250 259 268 289 279 290 298 278 282 281 281 281 334 347 279 269 275 272 270 254 248 238 238 240 243 243 240 234 239 248 253 255 250 244 242 239 242 244 246
256 275 283 283 274 272 279 266 225 250 219 240 263 278 286 292 319 284 267 270 272 261 252 249 249 249 250 250 249 248 243 244 247 250 251 253 253 251 247 243 241 244 247
279 288 286 290 281 276 286 291 282 241 217 223 231 238 249 270 276 267 261 254 250 231 240 253 257 259 260 259 258 257 254 250 249 250 252 254 255 253 251 248 245 247 251
280 281 284 286 290 292 288 280 275 278 268 249 223 219 227 236 243 247 240 235 241 230 250 259 262 264 266 263 263 263 260 257 251 252 252 251 250 250 249 249 246 246 251
288 302 305 302 292 292 291 284 282 280 281 282 280 231 213 226 226 228 218 243 258 260 261 262 264 268 270 266 264 263 261 258 255 254 253 254 253 250 250 251 249 238 243
260 270 276 281 285 288 289 288 290 289 285 283 285 291 278 261 262 236 230 254 267 274 275 274 273 273 268 266 264 263 259 254 251 248 251 252 251 251 250 251 251 245 238
269 233 237 263 280 292 293 295 296 292 291 287 287 313 316 289 284 278 269 265 270 276 279 278 276 271 266 264 265 264 266 266 264 261 256 252 250 248 248 248 245 242 240
284 273 267 277 283 286 294 295 291 287 292 296 300 288 222 265 285 285 282 281 281 280 280 280 280 280 275 270 268 269 270 270 267 264 259 256 254 251 248 245 241 241 237
289 285 277 279 281 275 274 285 291 291 294 299 303 305 299 297 294 294 292 289 287 285 285 283 281 282 283 280 276 270 269 271 273 272 268 259 253 250 247 247 246 242 239
303 292 287 287 286 287 291 293 291 291 293 297 298 296 295 296 297 306 309 308 302 294 290 285 281 283 284 280 275 271 274 281 277 268 264 261 256 249 243 239 239 237 238
298 291 290 294 296 295 299 302 301 302 306 308 306 305 306 308 306 306 309 307 307 310 307 297 289 284 285 286 289 294 314 304 288 286 273 263 260 255 246 241 238 237 235
304 306 309 312 309 306 306 309 308 309 310 310 309 309 314 316 313 317 319 318 316 314 310 302 306 304 301 294 298 305 295 270 264 274 272 264 260 257 251 243 241 240 236